[[{"header":{"parameterUnit":"m.s-1","parameterCategory":1,"la1":30.2992,"la2":30.254,"lo1":-89.0895,"lo2":-89.0443,"dy":0.0025,"dx":0.0025,"nx":19,"ny":19,"refTime":"2026-03-31T09:00:00:Z","depth":0,"parameterNumber":2,"parameterNumberName":"U-component_of_WINDS"},"data":[0,0,0,-3.9156,-3.9158,-3.928,-3.928,-3.9442,-3.9444,0,0,0,0,0,0,0,0,0,0,0,-3.9123,-3.9124,-3.9155,-3.9159,-3.928,-3.9281,-3.9442,-3.9444,0,0,0,0,0,0,0,0,0,0,0,-3.9122,-3.9124,-3.9125,-3.9159,-3.928,-3.9281,-3.9442,-3.9348,0,0,0,0,0,0,0,0,0,0,-3.9229,-3.9201,-3.9123,-3.9125,-3.916,-3.928,-3.9281,-3.9343,-3.9354,-3.939,0,-3.9422,0,-3.9436,-3.9455,-3.9456,0,0,0,-3.9156,-3.9192,-3.9222,-3.9125,-3.9161,-3.928,-3.9224,-3.9349,-3.9361,-3.9404,-3.9424,-3.943,-3.9438,-3.9456,-3.9457,-3.9673,-3.9674,0,0,-3.9149,-3.9146,-3.9214,-3.923,-3.9212,-3.9221,-3.9228,-3.9356,-3.9379,-3.9425,-3.9434,-3.9441,-3.9457,-3.9458,-3.9672,-3.9673,0,0,0,-3.9132,-3.9142,-3.9168,-3.9224,-3.9245,-3.9224,-3.9233,-3.9373,-3.9382,-3.9436,-3.9443,-3.9458,-3.946,-3.967,-3.9672,-3.9724,0,0,0,-3.9128,-3.9131,-3.9166,-3.9165,-3.9243,-3.9311,-3.9247,-3.9373,-3.9387,-3.9442,-3.9458,-3.9462,-3.9669,-3.9671,-3.972,-3.9748,0,0,0,-3.9114,-3.913,-3.9148,-3.9165,-3.9217,-3.9308,-3.9325,-3.9376,-3.9392,-3.9456,-3.9462,-3.9668,-3.9671,-3.9716,-3.9742,-3.9804,0,0,0,-3.9098,-3.9193,-3.9149,-3.9258,-3.9216,-3.934,-3.9324,-3.9417,-3.9477,-3.9459,-3.9669,-3.9672,-3.9715,-3.9739,-3.98,-3.9854,-3.9877,0,0,-3.9216,-3.9207,-3.9271,-3.9236,-3.9367,-3.9322,-3.9461,-3.9519,-3.9528,-3.9624,-3.963,-3.9721,-3.9742,-3.9803,-4.0007,-4.0025,0,0,0,-3.9307,-3.9353,-3.9389,-3.9447,-3.9494,-3.9537,-3.9575,-3.9597,-3.9679,-3.9577,-3.9761,-3.9773,-3.9809,-3.9835,-3.9851,-3.9881,-3.9684,-3.9684,-3.9684,-3.9468,-3.9475,-3.9582,-3.9604,-3.9661,-3.97,-3.9746,-3.9783,-3.9773,-3.9817,-3.9844,-3.9967,-3.9998,-4.0009,-4.0041,-3.9875,-3.9875,-3.9875,-3.9876,-3.964,-3.9706,-3.9693,-3.9791,-3.9799,-3.9882,-3.9924,-3.9915,-3.9993,-3.9946,-3.9978,-3.9925,-4.0028,-4.0057,-3.9879,-3.9879,-3.9878,-3.9878,-3.9878,-3.9745,-3.9778,-3.9804,-3.9889,-3.9954,-3.9974,-4.0051,-4.0055,-4.006,-4.0092,-4.0121,-4.012,-4.0119,-4.0106,-4.0106,-4.0107,-4.0107,-4.0107,-4.0108,-3.9842,-3.987,-3.9934,-3.9994,-4.0032,-4.0083,-4.0125,-4.0163,-4.0206,-4.0204,-4.0204,-4.019,-4.0038,-3.9998,-4.0114,-4.0113,-4.0112,-4.0112,-4.0111,-4.0012,-3.9975,-4.0073,-4.0111,-4.0183,-4.0247,-4.0253,-4.0331,-4.0363,-4.0401,-4.0381,-4.0268,-4.0259,-4.0247,-4.0214,-4.0379,-4.0379,-4.0379,-4.0379,-4.0099,-4.0096,-4.0197,-4.0259,-4.032,-4.0335,-4.0447,-4.0482,-4.0511,-4.0532,-4.0509,-4.0467,-4.0455,-4.0453,-4.0437,-4.0406,-4.0616,-4.0616,-4.0617,-4.0203,-4.0206,-4.0299,-4.0328,-4.0385,-4.0433,-4.0539,-4.061,-4.0637,-4.0626,-4.0548,-4.0538,-4.047,-4.0448,-4.0433,-4.0408,-4.0352,0,0]},{"header":{"parameterUnit":"m.s-1","parameterCategory":1,"la1":30.2992,"la2":30.254,"lo1":-89.0895,"lo2":-89.0443,"dy":0.0025,"dx":0.0025,"nx":19,"ny":19,"refTime":"2026-03-31T09:00:00:Z","depth":0,"parameterNumber":3,"parameterNumberName":"V-component_of_WINDS"},"data":[0,0,0,2.8187,2.8188,2.8261,2.8261,2.835,2.8351,0,0,0,0,0,0,0,0,0,0,0,2.8163,2.8164,2.8186,2.8188,2.8261,2.8261,2.835,2.8351,0,0,0,0,0,0,0,0,0,0,0,2.8163,2.8163,2.8164,2.8188,2.826,2.8261,2.835,2.8296,0,0,0,0,0,0,0,0,0,0,2.8227,2.8203,2.8163,2.8164,2.8189,2.826,2.8261,2.8294,2.83,2.8316,0,2.833,0,2.8342,2.8357,2.8357,0,0,0,2.819,2.8198,2.8219,2.8164,2.819,2.826,2.8228,2.8297,2.8304,2.8324,2.8331,2.8335,2.8344,2.8357,2.8358,2.8451,2.8451,0,0,2.8186,2.8175,2.8215,2.8224,2.8212,2.8226,2.823,2.8301,2.8309,2.8332,2.8337,2.8345,2.8358,2.8359,2.845,2.8451,0,0,0,2.8173,2.8172,2.8192,2.822,2.8233,2.8228,2.8233,2.8305,2.8313,2.8338,2.8346,2.8359,2.836,2.845,2.8451,2.846,0,0,0,2.8171,2.8165,2.819,2.8184,2.8232,2.827,2.8236,2.8308,2.8316,2.8346,2.8359,2.836,2.845,2.845,2.8459,2.8466,0,0,0,2.8159,2.8163,2.8173,2.8183,2.8214,2.8269,2.8281,2.831,2.8321,2.8357,2.8361,2.8449,2.845,2.8458,2.8465,2.849,0,0,0,2.8143,2.8178,2.8173,2.8216,2.8213,2.8274,2.8281,2.8326,2.8358,2.8359,2.845,2.845,2.8458,2.8464,2.8489,2.851,2.8518,0,0,2.8181,2.8182,2.8209,2.8206,2.8266,2.8264,2.8326,2.8364,2.8376,2.8425,2.8428,2.8459,2.8465,2.849,2.8561,2.8566,0,0,0,2.8217,2.8236,2.8254,2.8285,2.8317,2.8345,2.8376,2.8391,2.8434,2.8399,2.8475,2.8478,2.8493,2.8504,2.8509,2.8524,2.8454,2.8454,2.8454,2.8256,2.8272,2.8318,2.8344,2.8374,2.8407,2.8433,2.8459,2.8464,2.8482,2.8497,2.8538,2.855,2.8554,2.8569,2.8508,2.8508,2.8508,2.8508,2.8315,2.8346,2.8356,2.8404,2.8421,2.8461,2.8496,2.8499,2.854,2.8527,2.8541,2.8527,2.856,2.8574,2.8509,2.8509,2.8509,2.8509,2.8509,2.8344,2.8361,2.838,2.8429,2.8465,2.849,2.853,2.8543,2.8556,2.857,2.8589,2.8589,2.8593,2.8578,2.8578,2.8578,2.8579,2.8579,2.8579,2.8366,2.8387,2.842,2.8459,2.8482,2.8515,2.8551,2.8574,2.8604,2.8611,2.8611,2.8617,2.856,2.8546,2.8581,2.8581,2.858,2.858,2.858,2.8423,2.8413,2.8463,2.8487,2.8536,2.8573,2.859,2.8638,2.8659,2.8679,2.8682,2.8637,2.8639,2.8635,2.8624,2.8677,2.8677,2.8677,2.8677,2.8448,2.8451,2.8507,2.8545,2.8584,2.8606,2.8664,2.8693,2.8722,2.8737,2.8731,2.8717,2.8712,2.8717,2.8711,2.8701,2.8773,2.8773,2.8773,2.8485,2.8493,2.8539,2.8569,2.8609,2.8643,2.8699,2.8743,2.8773,2.8777,2.8749,2.8745,2.8723,2.8714,2.8718,2.8709,2.8691,0,0]}]]